McCall, ID

11:42 PM MDT on August 18, 2017 (GMT -0600)
McCall

Weather History for KMYL - July, 2014

Change the Weather History Date:

Wednesday, July 9, 2014

  Actual Average Record
Temperature  
Mean Temperature 65 °F 60 °F  
Max Temperature 78 °F 77 °F 92 °F (1956)
Min Temperature 52 °F 43 °F 32 °F (1910)
Degree Days  
Heating Degree Days 0 6  
Month to date heating degree days 2 61  
Since 1 June heating degree days 316 428  
Since 1 July heating degree days 2 61  
Cooling Degree Days 0 0  
Month to date cooling degree days 38 0  
Year to date cooling degree days 38 1  
Since 1 June cooling degree days 38 1  
Growing Degree Days 15 (Base 50)    
Moisture  
Dew Point 51 °F    
Average Humidity 64    
Maximum Humidity 86    
Minimum Humidity 41    
Precipitation  
Precipitation T in 0.03 in 0.45 in (1974)
Month to date precipitation T 0.31  
Year to date precipitation 15.19 11.95  
Sea Level Pressure  
Sea Level Pressure 29.93 in    
Wind  
Wind Speed 4 mph (SSE)    
Max Wind Speed 12 mph    
Max Gust Speed 15 mph    
Visibility 10 miles    
Events Rain    
T = Trace of Precipitation, MM = Missing Value Source: NWS Daily Summary

Daily Weather History Graph

Daily Weather History Graph

Search for Another Location

Airport or City:

Trip Planner

Search our weather history database for the weather conditions in past years. The results will help you decide how hot, cold, wet, or windy it might be!

Date:

Astronomy

Jul. 09, 2014 Rise Set
Actual Time 6:07 AM MDT 9:31 PM MDT
Civil Twilight 5:30 AM MDT 10:07 PM MDT
Nautical Twilight 4:43 AM MDT 10:55 PM MDT
Astronomical Twilight 3:42 AM MDT 11:55 PM MDT
Moon 6:44 PM MDT (7/9) 3:33 AM MDT (7/9)
Length of Visible Light 16h 36m
Length of Day
15h 24m
Waxing Gibbous, 90% of the Moon is Illuminated
Jul 9
Waxing Gibbous
Jul 12
Full
Jul 18
Last Quarter
Jul 26
New
Aug 3
First Quarter

Hourly Weather History & Observations

Time (MDT) Temp. Dew Point Humidity Pressure Visibility Wind Dir Wind Speed Gust Speed Precip Events Conditions
12:51 AM 70.0 °F 46.0 °F 42% 29.90 in 10.0 mi North 6.9 mph - N/A   Clear
1:51 AM 64.9 °F 48.9 °F 56% 29.90 in 10.0 mi NNE 5.8 mph - N/A   Clear
2:51 AM 60.1 °F 50.0 °F 69% 29.91 in 10.0 mi Calm Calm - N/A   Clear
3:51 AM 60.1 °F 48.9 °F 67% 29.91 in 10.0 mi Calm Calm - N/A   Clear
4:51 AM 55.0 °F 48.0 °F 77% 29.91 in 10.0 mi Calm Calm - N/A   Clear
5:51 AM 55.9 °F 46.9 °F 72% 29.90 in 10.0 mi West 4.6 mph - N/A   Clear
6:51 AM 57.9 °F 48.9 °F 72% 29.91 in 10.0 mi Calm Calm - N/A   Clear
7:51 AM 60.1 °F 50.0 °F 69% 29.92 in 10.0 mi West 3.5 mph - N/A   Clear
8:51 AM 69.1 °F 48.9 °F 49% 29.91 in 10.0 mi Calm Calm - N/A   Clear
9:51 AM 71.1 °F 52.0 °F 51% 29.92 in 10.0 mi South 5.8 mph - N/A   Clear
10:51 AM 72.0 °F 50.0 °F 46% 29.94 in 10.0 mi Variable 4.6 mph - N/A   Partly Cloudy
11:51 AM 75.9 °F 50.0 °F 40% 29.93 in 10.0 mi South 4.6 mph - N/A   Scattered Clouds
12:51 PM 75.9 °F 51.1 °F 42% 29.94 in 10.0 mi SE 4.6 mph - N/A   Mostly Cloudy
1:51 PM 75.0 °F 51.1 °F 43% 29.96 in 10.0 mi South 5.8 mph - 0.00 in Rain Light Rain
2:51 PM 69.1 °F 55.0 °F 61% 30.01 in 10.0 mi SSE 5.8 mph - 0.00 in Rain Light Rain
3:51 PM 66.9 °F 55.0 °F 66% 30.01 in 10.0 mi ESE 9.2 mph - 0.00 in   Overcast
4:51 PM 68.0 °F 52.0 °F 56% 30.01 in 10.0 mi SE 4.6 mph - N/A   Partly Cloudy
5:51 PM 66.9 °F 54.0 °F 63% 29.98 in 10.0 mi South 6.9 mph - N/A   Scattered Clouds
6:51 PM 68.0 °F 50.0 °F 52% 29.96 in 10.0 mi SSW 4.6 mph - N/A   Clear
9:51 PM 62.1 °F 54.0 °F 75% 29.91 in 10.0 mi NE 3.5 mph - N/A   Clear
10:51 PM 59.0 °F 53.1 °F 81% 29.92 in 10.0 mi Calm Calm - N/A   Clear
11:51 PM 55.9 °F 52.0 °F 87% 29.91 in 10.0 mi Calm Calm - N/A   Clear